QPF
0.04 0.05 0.05 0.04 0.04 0.03 0.03 0.03 0.04 0.04 0.03 0.02 0.01 0.01 0.02 0.02 0.03 0.03 0.02 0.02 0.02 0.01 0.01 0.00 0.00 0.00 0.00 0.01 0.01 0.02 0.04 0.05 0.04 0.04 0.04 0.05 0.06 0.07
0.05 0.04 0.04 0.03 0.04 0.04 0.03 0.03 0.03 0.03 0.02 0.01 0.01 0.01 0.02 0.01 0.01 0.02 0.03 0.03 0.02 0.02 0.01 0.01 0.00 0.00 0.00 0.00 0.01 0.01 0.02 0.02 0.02 0.02 0.03 0.03 0.04 0.04
0.05 0.05 0.05 0.04 0.03 0.02 0.02 0.02 0.02 0.02 0.02 0.01 0.01 0.01 0.01 0.01 0.01 0.01 0.02 0.02 0.02 0.02 0.02 0.01 0.01 0.00 0.00 0.01 0.01 0.02 0.01 0.01 0.02 0.03 0.03 0.03 0.03 0.03
0.05 0.06 0.06 0.04 0.04 0.04 0.03 0.03 0.03 0.02 0.02 0.01 0.01 0.01 0.01 0.01 0.01 0.00 0.00 0.01 0.01 0.01 0.01 0.01 0.02 0.01 0.01 0.02 0.02 0.02 0.02 0.03 0.03 0.03 0.04 0.03 0.03 0.02
0.05 0.06 0.06 0.05 0.05 0.04 0.03 0.03 0.02 0.01 0.01 0.01 0.01 0.01 0.01 0.01 0.01 0.00 0.00 0.01 0.00 0.00 0.00 0.01 0.01 0.02 0.02 0.02 0.02 0.02 0.02 0.02 0.02 0.02 0.03 0.04 0.04 0.03
0.04 0.05 0.06 0.05 0.05 0.04 0.03 0.02 0.02 0.01 0.02 0.02 0.01 0.02 0.02 0.01 0.01 0.01 0.01 0.01 0.01 0.01 0.00 0.00 0.01 0.01 0.01 0.01 0.02 0.02 0.02 0.01 0.01 0.02 0.02 0.02 0.03 0.03
0.03 0.03 0.03 0.05 0.06 0.05 0.03 0.03 0.02 0.02 0.02 0.02 0.01 0.01 0.01 0.01 0.01 0.01 0.01 0.01 0.01 0.01 0.01 0.01 0.01 0.01 0.01 0.01 0.01 0.01 0.02 0.02 0.01 0.01 0.01 0.01 0.02 0.02
0.03 0.03 0.03 0.03 0.03 0.04 0.05 0.05 0.04 0.04 0.03 0.02 0.01 0.01 0.01 0.01 0.02 0.01 0.01 0.01 0.01 0.01 0.02 0.02 0.01 0.01 0.01 0.01 0.01 0.00 0.00 0.01 0.01 0.00 0.00 0.01 0.01 0.01
0.04 0.03 0.02 0.01 0.01 0.02 0.03 0.04 0.04 0.05 0.05 0.05 0.04 0.03 0.02 0.02 0.02 0.02 0.01 0.01 0.01 0.01 0.01 0.01 0.02 0.01 0.01 0.01 0.01 0.01 0.00 0.00 0.00 0.00 0.00 0.00 0.00 0.01
0.02 0.02 0.02 0.01 0.01 0.02 0.03 0.02 0.03 0.02 0.03 0.03 0.05 0.05 0.04 0.03 0.03 0.02 0.02 0.01 0.01 0.01 0.01 0.01 0.01 0.01 0.01 0.01 0.01 0.01 0.01 0.01 0.00 0.00 0.00 0.00 0.00 0.00
0.02 0.01 0.01 0.02 0.02 0.01 0.02 0.03 0.03 0.03 0.02 0.02 0.02 0.03 0.02 0.02 0.02 0.02 0.02 0.01 0.01 0.01 0.01 0.01 0.01 0.01 0.01 0.01 0.01 0.01 0.01 0.01 0.01 0.00 0.00 0.00 0.00 0.00
0.02 0.02 0.01 0.02 0.03 0.03 0.02 0.03 0.03 0.03 0.02 0.01 0.01 0.02 0.01 0.01 0.01 0.01 0.01 0.01 0.01 0.01 0.01 0.01 0.01 0.02 0.01 0.01 0.01 0.01 0.01 0.01 0.01 0.01 0.00 0.00 0.00 0.00
0.03 0.02 0.01 0.02 0.02 0.02 0.02 0.02 0.02 0.02 0.02 0.02 0.01 0.01 0.01 0.01 0.01 0.01 0.01 0.01 0.01 0.01 0.01 0.01 0.01 0.02 0.02 0.01 0.01 0.01 0.01 0.01 0.01 0.01 0.01 0.00 0.00 0.00
0.04 0.03 0.02 0.01 0.01 0.01 0.01 0.01 0.01 0.01 0.01 0.01 0.01 0.01 0.01 0.01 0.01 0.01 0.01 0.01 0.01 0.01 0.01 0.01 0.01 0.02 0.02 0.02 0.01 0.01 0.01 0.02 0.01 0.01 0.01 0.01 0.01 0.00
0.05 0.04 0.03 0.02 0.02 0.01 0.01 0.01 0.01 0.01 0.01 0.01 0.01 0.01 0.01 0.01 0.01 0.01 0.01 0.01 0.01 0.01 0.01 0.01 0.01 0.02 0.02 0.02 0.02 0.02 0.02 0.02 0.02 0.02 0.02 0.02 0.02 0.02
0.04 0.04 0.04 0.03 0.02 0.02 0.01 0.01 0.01 0.01 0.01 0.01 0.01 0.01 0.01 0.01 0.01 0.01 0.01 0.01 0.01 0.01 0.02 0.02 0.02 0.02 0.02 0.02 0.02 0.02 0.03 0.03 0.02 0.02 0.02 0.02 0.02 0.02
0.03 0.03 0.03 0.02 0.02 0.02 0.02 0.02 0.02 0.02 0.01 0.01 0.01 0.02 0.02 0.01 0.01 0.01 0.01 0.01 0.01 0.02 0.02 0.03 0.02 0.02 0.02 0.03 0.03 0.02 0.03 0.03 0.02 0.02 0.03 0.03 0.02 0.01
0.03 0.03 0.03 0.03 0.02 0.02 0.03 0.03 0.03 0.03 0.02 0.02 0.02 0.02 0.02 0.02 0.01 0.01 0.01 0.01 0.02 0.02 0.02 0.03 0.03 0.04 0.03 0.03 0.03 0.03 0.03 0.04 0.04 0.04 0.03 0.03 0.02 0.02
0.03 0.03 0.04 0.04 0.03 0.02 0.02 0.02 0.03 0.04 0.05 0.05 0.05 0.05 0.05 0.04 0.03 0.03 0.02 0.02 0.02 0.02 0.02 0.02 0.03 0.03 0.03 0.03 0.03 0.02 0.03 0.04 0.04 0.05 0.05 0.05 0.05 0.04
0.04 0.04 0.05 0.04 0.04 0.03 0.02 0.01 0.01 0.02 0.02 0.03 0.03 0.04 0.04 0.04 0.04 0.04 0.03 0.02 0.02 0.02 0.02 0.02 0.02 0.03 0.04 0.04 0.04 0.03 0.03 0.04 0.04 0.04 0.04 0.03 0.03 0.03
0.04 0.05 0.05 0.06 0.05 0.04 0.03 0.02 0.02 0.02 0.02 0.02 0.02 0.02 0.01 0.02 0.03 0.03 0.03 0.03 0.03 0.03 0.03 0.03 0.03 0.04 0.04 0.04 0.05 0.05 0.04 0.04 0.05 0.05 0.05 0.04 0.02 0.02
0.05 0.04 0.04 0.05 0.06 0.06 0.04 0.03 0.03 0.02 0.02 0.02 0.01 0.01 0.01 0.01 0.02 0.03 0.03 0.03 0.03 0.03 0.03 0.04 0.03 0.03 0.04 0.04 0.04 0.05 0.05 0.06 0.06 0.06 0.05 0.04 0.03 0.03
0.04 0.04 0.04 0.04 0.05 0.06 0.06 0.05 0.04 0.03 0.02 0.02 0.02 0.02 0.01 0.01 0.01 0.02 0.01 0.01 0.02 0.02 0.03 0.04 0.04 0.04 0.05 0.04 0.04 0.05 0.06 0.06 0.06 0.05 0.05 0.04 0.03 0.03
MSLP
1019.30 1019.39 1019.50 1019.63 1019.79 1019.96 1020.15 1020.35 1020.55 1020.76 1020.97 1021.19 1021.41 1021.64 1021.86 1022.07 1022.28 1022.46 1022.62 1022.75 1022.85 1022.91 1022.93 1022.91 1022.86 1022.76 1022.63 1022.46 1022.28 1022.08 1021.87 1021.67 1021.48 1021.30 1021.14 1020.99 1020.84 1020.68
1019.39 1019.48 1019.56 1019.66 1019.78 1019.92 1020.08 1020.26 1020.46 1020.67 1020.89 1021.12 1021.35 1021.58 1021.79 1021.98 1022.15 1022.28 1022.39 1022.46 1022.50 1022.52 1022.50 1022.46 1022.40 1022.31 1022.19 1022.06 1021.90 1021.73 1021.55 1021.36 1021.18 1021.00 1020.83 1020.66 1020.50 1020.34
1019.49 1019.58 1019.66 1019.74 1019.84 1019.97 1020.11 1020.28 1020.48 1020.70 1020.93 1021.16 1021.39 1021.61 1021.79 1021.95 1022.06 1022.14 1022.17 1022.17 1022.15 1022.11 1022.05 1021.98 1021.90 1021.82 1021.72 1021.61 1021.49 1021.35 1021.19 1021.03 1020.84 1020.66 1020.47 1020.27 1020.08 1019.90
1019.56 1019.67 1019.77 1019.86 1019.95 1020.07 1020.21 1020.39 1020.58 1020.80 1021.03 1021.26 1021.49 1021.68 1021.84 1021.95 1022.01 1022.03 1022.00 1021.93 1021.84 1021.73 1021.62 1021.52 1021.43 1021.34 1021.25 1021.16 1021.07 1020.96 1020.83 1020.67 1020.49 1020.29 1020.07 1019.85 1019.63 1019.42
1019.62 1019.75 1019.86 1019.97 1020.07 1020.20 1020.34 1020.52 1020.71 1020.93 1021.16 1021.38 1021.59 1021.76 1021.89 1021.97 1021.99 1021.95 1021.86 1021.74 1021.59 1021.43 1021.27 1021.13 1021.01 1020.90 1020.81 1020.73 1020.65 1020.55 1020.43 1020.28 1020.11 1019.90 1019.66 1019.41 1019.16 1018.93
1019.65 1019.80 1019.93 1020.06 1020.18 1020.32 1020.47 1020.64 1020.84 1021.04 1021.26 1021.47 1021.66 1021.82 1021.93 1021.98 1021.97 1021.91 1021.79 1021.62 1021.43 1021.23 1021.02 1020.84 1020.67 1020.53 1020.41 1020.31 1020.22 1020.12 1020.00 1019.85 1019.67 1019.45 1019.20 1018.94 1018.67 1018.43
1019.66 1019.83 1019.98 1020.12 1020.27 1020.42 1020.57 1020.75 1020.93 1021.13 1021.32 1021.51 1021.69 1021.83 1021.92 1021.97 1021.96 1021.88 1021.75 1021.58 1021.36 1021.13 1020.89 1020.65 1020.43 1020.24 1020.07 1019.92 1019.79 1019.66 1019.52 1019.36 1019.17 1018.95 1018.70 1018.43 1018.16 1017.91
1019.64 1019.83 1020.01 1020.18 1020.34 1020.51 1020.67 1020.84 1021.01 1021.18 1021.35 1021.52 1021.67 1021.80 1021.89 1021.94 1021.94 1021.88 1021.76 1021.60 1021.38 1021.13 1020.86 1020.57 1020.29 1020.03 1019.78 1019.56 1019.36 1019.17 1018.99 1018.80 1018.60 1018.38 1018.13 1017.87 1017.62 1017.38
1019.60 1019.82 1020.03 1020.23 1020.42 1020.60 1020.77 1020.93 1021.09 1021.23 1021.37 1021.51 1021.64 1021.75 1021.84 1021.89 1021.92 1021.89 1021.81 1021.67 1021.47 1021.22 1020.92 1020.59 1020.25 1019.90 1019.56 1019.25 1018.96 1018.70 1018.45 1018.22 1018.00 1017.77 1017.53 1017.29 1017.05 1016.85
1019.52 1019.78 1020.03 1020.27 1020.50 1020.70 1020.89 1021.04 1021.18 1021.29 1021.40 1021.50 1021.59 1021.69 1021.77 1021.84 1021.89 1021.90 1021.86 1021.76 1021.59 1021.35 1021.05 1020.68 1020.28 1019.86 1019.43 1019.01 1018.63 1018.27 1017.95 1017.67 1017.41 1017.17 1016.93 1016.71 1016.50 1016.32
1019.37 1019.69 1020.00 1020.29 1020.56 1020.80 1020.99 1021.15 1021.27 1021.36 1021.43 1021.49 1021.55 1021.62 1021.69 1021.76 1021.83 1021.88 1021.88 1021.83 1021.70 1021.49 1021.19 1020.81 1020.37 1019.88 1019.38 1018.87 1018.39 1017.95 1017.55 1017.21 1016.91 1016.64 1016.41 1016.19 1016.00 1015.84
1019.15 1019.53 1019.90 1020.25 1020.56 1020.84 1021.05 1021.22 1021.33 1021.40 1021.43 1021.46 1021.48 1021.51 1021.57 1021.64 1021.72 1021.79 1021.83 1021.82 1021.74 1021.57 1021.29 1020.92 1020.47 1019.95 1019.39 1018.82 1018.26 1017.75 1017.29 1016.88 1016.54 1016.25 1016.00 1015.79 1015.61 1015.47
1018.84 1019.27 1019.70 1020.10 1020.46 1020.76 1021.00 1021.18 1021.29 1021.34 1021.36 1021.35 1021.34 1021.34 1021.37 1021.43 1021.51 1021.60 1021.67 1021.70 1021.66 1021.53 1021.31 1020.97 1020.53 1020.01 1019.43 1018.83 1018.23 1017.67 1017.16 1016.71 1016.33 1016.02 1015.76 1015.54 1015.37 1015.22
1018.43 1018.90 1019.36 1019.79 1020.18 1020.52 1020.78 1020.97 1021.08 1021.14 1021.14 1021.12 1021.08 1021.06 1021.07 1021.11 1021.18 1021.28 1021.37 1021.43 1021.43 1021.36 1021.18 1020.89 1020.50 1020.01 1019.46 1018.86 1018.26 1017.68 1017.15 1016.68 1016.28 1015.94 1015.67 1015.45 1015.27 1015.13
1017.93 1018.41 1018.88 1019.31 1019.71 1020.05 1020.33 1020.54 1020.67 1020.74 1020.75 1020.73 1020.69 1020.66 1020.65 1020.67 1020.74 1020.82 1020.92 1021.00 1021.05 1021.02 1020.90 1020.67 1020.34 1019.91 1019.41 1018.85 1018.28 1017.71 1017.19 1016.72 1016.32 1015.98 1015.71 1015.49 1015.32 1015.19
1017.35 1017.80 1018.24 1018.65 1019.03 1019.37 1019.65 1019.88 1020.04 1020.13 1020.18 1020.18 1020.15 1020.13 1020.12 1020.14 1020.19 1020.27 1020.36 1020.46 1020.52 1020.53 1020.46 1020.30 1020.04 1019.68 1019.25 1018.75 1018.23 1017.71 1017.22 1016.77 1016.39 1016.07 1015.81 1015.61 1015.46 1015.34
1016.68 1017.07 1017.45 1017.81 1018.15 1018.47 1018.76 1019.00 1019.20 1019.34 1019.43 1019.48 1019.50 1019.51 1019.51 1019.53 1019.58 1019.65 1019.74 1019.84 1019.91 1019.94 1019.91 1019.80 1019.61 1019.32 1018.95 1018.53 1018.07 1017.61 1017.16 1016.76 1016.41 1016.13 1015.91 1015.74 1015.62 1015.53
1015.93 1016.24 1016.54 1016.84 1017.13 1017.42 1017.70 1017.97 1018.21 1018.42 1018.58 1018.69 1018.77 1018.83 1018.87 1018.91 1018.96 1019.03 1019.11 1019.20 1019.27 1019.31 1019.30 1019.23 1019.08 1018.85 1018.54 1018.18 1017.79 1017.38 1016.99 1016.64 1016.34 1016.10 1015.93 1015.81 1015.74 1015.70
1015.08 1015.32 1015.54 1015.76 1016.01 1016.27 1016.56 1016.86 1017.15 1017.42 1017.66 1017.86 1018.02 1018.14 1018.23 1018.30 1018.37 1018.44 1018.51 1018.58 1018.64 1018.68 1018.68 1018.62 1018.50 1018.31 1018.05 1017.74 1017.39 1017.04 1016.70 1016.40 1016.14 1015.96 1015.83 1015.77 1015.76 1015.78
1014.14 1014.31 1014.46 1014.64 1014.84 1015.09 1015.39 1015.72 1016.06 1016.41 1016.73 1017.01 1017.25 1017.44 1017.59 1017.70 1017.79 1017.87 1017.94 1018.00 1018.05 1018.08 1018.08 1018.03 1017.92 1017.75 1017.52 1017.24 1016.93 1016.61 1016.31 1016.05 1015.84 1015.69 1015.62 1015.61 1015.66 1015.74
1013.09 1013.22 1013.33 1013.48 1013.67 1013.92 1014.23 1014.60 1015.00 1015.41 1015.80 1016.16 1016.48 1016.73 1016.93 1017.09 1017.20 1017.30 1017.37 1017.43 1017.48 1017.51 1017.50 1017.46 1017.36 1017.20 1016.99 1016.73 1016.45 1016.15 1015.87 1015.63 1015.45 1015.34 1015.30 1015.34 1015.43 1015.57
1011.93 1012.05 1012.17 1012.32 1012.52 1012.78 1013.13 1013.53 1013.97 1014.43 1014.89 1015.30 1015.67 1015.98 1016.22 1016.41 1016.56 1016.67 1016.76 1016.83 1016.89 1016.93 1016.94 1016.90 1016.82 1016.68 1016.49 1016.25 1015.97 1015.69 1015.42 1015.19 1015.02 1014.92 1014.91 1014.97 1015.10 1015.26
1010.70 1010.85 1010.99 1011.17 1011.40 1011.70 1012.08 1012.52 1012.99 1013.49 1013.97 1014.42 1014.82 1015.16 1015.43 1015.64 1015.81 1015.95 1016.06 1016.16 1016.24 1016.31 1016.34 1016.34 1016.28 1016.17 1016.00 1015.78 1015.52 1015.25 1014.98 1014.75 1014.58 1014.48 1014.47 1014.54 1014.67 1014.85
Thickness
5690 5688 5689 5692 5692 5693 5692 5691 5686 5683 5686 5688 5688 5688 5685 5683 5679 5678 5677 5674 5672 5671 5670 5669 5668 5668 5667 5667 5666 5666 5665 5664 5663 5661 5661 5660 5659 5657
5684 5683 5684 5687 5688 5688 5688 5688 5687 5684 5683 5687 5685 5686 5681 5679 5676 5674 5673 5671 5669 5668 5666 5665 5664 5664 5663 5663 5662 5662 5661 5660 5658 5657 5656 5656 5655 5654
5680 5680 5680 5680 5682 5684 5684 5684 5683 5682 5679 5682 5683 5681 5676 5674 5672 5671 5670 5670 5669 5666 5664 5662 5661 5660 5660 5659 5659 5658 5657 5656 5655 5654 5653 5653 5652 5651
5676 5676 5676 5677 5676 5677 5678 5679 5679 5678 5676 5674 5675 5675 5672 5670 5668 5667 5668 5668 5667 5664 5661 5659 5658 5657 5657 5656 5655 5655 5654 5652 5651 5650 5649 5649 5648 5647
5672 5672 5672 5671 5670 5672 5671 5673 5674 5675 5673 5671 5671 5671 5670 5668 5665 5664 5665 5663 5664 5663 5660 5657 5656 5655 5654 5653 5652 5651 5650 5649 5647 5646 5645 5644 5643 5642
5669 5668 5668 5667 5666 5666 5666 5666 5668 5668 5668 5667 5667 5666 5665 5665 5662 5661 5661 5660 5660 5661 5659 5657 5655 5653 5652 5651 5650 5648 5647 5645 5644 5643 5642 5641 5639 5638
5665 5664 5664 5662 5660 5659 5661 5662 5662 5662 5663 5662 5662 5661 5661 5659 5658 5659 5657 5657 5657 5658 5657 5657 5655 5654 5653 5650 5648 5646 5644 5642 5641 5640 5639 5637 5636 5634
5660 5660 5660 5657 5654 5652 5652 5652 5653 5654 5655 5655 5656 5655 5654 5654 5654 5653 5652 5651 5651 5654 5652 5653 5654 5653 5653 5652 5649 5645 5642 5640 5639 5637 5636 5634 5633 5631
5655 5654 5656 5656 5652 5651 5648 5646 5646 5645 5645 5647 5649 5649 5649 5649 5648 5647 5645 5645 5646 5648 5646 5648 5651 5651 5651 5651 5646 5643 5641 5639 5637 5635 5633 5632 5630 5628
5652 5651 5650 5649 5648 5646 5645 5645 5644 5643 5641 5641 5642 5643 5643 5642 5640 5640 5639 5639 5640 5642 5642 5642 5646 5647 5649 5647 5643 5641 5639 5637 5635 5633 5631 5629 5627 5625
5648 5647 5646 5645 5641 5638 5639 5640 5640 5640 5638 5637 5636 5636 5634 5633 5632 5633 5634 5634 5638 5641 5640 5639 5641 5643 5644 5645 5642 5638 5636 5635 5633 5631 5629 5627 5624 5622
5643 5643 5640 5639 5636 5633 5634 5635 5634 5635 5635 5634 5631 5630 5630 5630 5627 5627 5630 5632 5634 5636 5638 5635 5637 5637 5638 5642 5640 5638 5634 5632 5630 5629 5627 5624 5621 5619
5638 5639 5639 5632 5629 5627 5627 5630 5630 5628 5630 5630 5631 5631 5630 5630 5629 5628 5627 5628 5630 5632 5634 5630 5631 5631 5631 5634 5636 5636 5634 5632 5629 5627 5625 5622 5619 5617
5632 5634 5633 5627 5624 5622 5622 5623 5622 5620 5625 5627 5628 5629 5629 5629 5629 5627 5625 5624 5623 5625 5626 5625 5625 5624 5625 5626 5629 5631 5631 5629 5628 5627 5625 5621 5617 5615
5626 5625 5623 5621 5619 5619 5618 5617 5616 5619 5622 5623 5625 5626 5626 5626 5624 5622 5621 5620 5619 5620 5621 5620 5620 5621 5620 5621 5623 5625 5625 5626 5625 5624 5623 5620 5618 5615
5618 5619 5617 5615 5615 5616 5616 5615 5616 5619 5620 5621 5622 5623 5622 5621 5620 5620 5619 5619 5618 5620 5619 5618 5616 5616 5616 5617 5618 5619 5620 5620 5621 5620 5619 5617 5615 5614
5612 5615 5617 5617 5617 5618 5618 5618 5618 5617 5617 5618 5618 5618 5618 5617 5617 5617 5616 5616 5615 5617 5618 5617 5616 5614 5614 5614 5615 5616 5616 5616 5617 5616 5613 5613 5612 5611
5605 5612 5614 5616 5617 5617 5617 5617 5615 5615 5615 5615 5615 5614 5614 5614 5614 5614 5613 5612 5612 5614 5615 5615 5614 5612 5612 5615 5612 5613 5613 5613 5613 5612 5610 5609 5608 5608
5602 5609 5611 5613 5615 5616 5617 5616 5616 5615 5613 5612 5612 5612 5611 5611 5611 5610 5609 5609 5609 5610 5611 5611 5610 5609 5608 5611 5612 5607 5608 5608 5608 5608 5607 5606 5605 5604
5604 5607 5609 5611 5612 5613 5614 5614 5614 5613 5610 5609 5608 5608 5608 5607 5607 5607 5606 5605 5605 5606 5607 5608 5607 5607 5606 5605 5606 5606 5603 5604 5604 5603 5604 5604 5603 5599
5604 5605 5607 5608 5609 5609 5609 5609 5609 5608 5607 5606 5606 5605 5604 5603 5603 5604 5603 5601 5599 5601 5601 5603 5604 5602 5602 5601 5600 5602 5602 5599 5599 5598 5598 5599 5598 5597
5599 5601 5602 5603 5603 5603 5603 5604 5604 5603 5602 5602 5602 5602 5601 5600 5600 5599 5600 5600 5598 5598 5599 5600 5600 5599 5597 5597 5597 5598 5598 5597 5594 5592 5592 5593 5594 5592
5592 5594 5595 5596 5596 5596 5596 5597 5597 5597 5597 5597 5597 5597 5597 5597 5596 5596 5596 5595 5595 5596 5595 5595 5595 5595 5595 5595 5593 5593 5593 5594 5593 5592 5590 5588 5586 5584